When you browse on this site, cookies collect data to enhance your experience and personalize the content and advertising you see.
Visit our Privacy Policy to learn more. By continuing to use the site, you agree to this use of cookies and data.
  • In Lithuania
  • List of Countries
  • For 7 days
  • Water Temperature
  • Satellite Maps
  • Weather Map
  • Weather Widgets
  • user-avatar
    Login

    Hourly Weather Sretensk

    Today, 20 March, Wednesday

    Time Temperature Precipitation Wind Pressure Humidity
    00:00 -12°C° 0 mm 0 mps 713 mmHg 84%
    01:00 -13°C° 0 mm 0 mps 713 mmHg 84%
    02:00 -13°C° 0 mm 0 mps 713 mmHg 84%
    03:00 -14°C° 0 mm 0 mps 713 mmHg 84%
    04:00 -14°C° 0 mm 0 mps 713 mmHg 85%
    05:00 -14°C° 0 mm 0 mps 714 mmHg 85%
    06:00 -13°C° 0 mm 0 mps 714 mmHg 82%
    07:00 -12°C° 0 mm 0 mps 714 mmHg 80%
    08:00 -10°C° 0 mm 0 mps 715 mmHg 70%
    09:00 -9°C° 0 mm 0 mps 715 mmHg 65%
    10:00 -7°C° 0 mm 1 mps 715 mmHg 60%
    11:00 -4°C° 0 mm 1 mps 715 mmHg 55%
    12:00 -3°C° 0 mm 1 mps 715 mmHg 52%
    13:00 -5°C° 0 mm 2 mps 715 mmHg 49%
    14:00 -4°C° 0 mm 2 mps 714 mmHg 45%
    15:00 -5°C° 0 mm 2 mps 714 mmHg 48%
    16:00 -5°C° 0 mm 2 mps 714 mmHg 50%
    17:00 -5°C° 0 mm 2 mps 714 mmHg 53%
    18:00 -7°C° 0 mm 2 mps 715 mmHg 60%
    19:00 -8°C° 0 mm 1 mps 715 mmHg 67%
    20:00 -10°C° 0 mm 1 mps 715 mmHg 74%
    21:00 -10°C° 0 mm 1 mps 715 mmHg 75%
    22:00 -11°C° 0 mm 0 mps 715 mmHg 77%
    23:00 -11°C° 0 mm 0 mps 716 mmHg 78%

    Tomorrow, 21 March, Thursday

    Time Temperature Precipitation Wind Pressure Humidity
    00:00 -11°C° 0 mm 0 mps 716 mmHg 79%
    01:00 -12°C° 0 mm 0 mps 715 mmHg 80%
    02:00 -12°C° 0 mm 1 mps 715 mmHg 80%
    03:00 -12°C° 0 mm 1 mps 715 mmHg 82%
    04:00 -13°C° 0 mm 1 mps 715 mmHg 83%
    05:00 -13°C° 0 mm 1 mps 715 mmHg 84%
    06:00 -12°C° 0 mm 1 mps 715 mmHg 81%
    07:00 -11°C° 0 mm 1 mps 715 mmHg 78%
    08:00 -10°C° 0 mm 1 mps 715 mmHg 74%
    09:00 -8°C° 0 mm 1 mps 715 mmHg 68%
    10:00 -6°C° 0 mm 1 mps 715 mmHg 62%
    11:00 -6°C° 0 mm 2 mps 715 mmHg 56%
    12:00 -5°C° 0 mm 2 mps 714 mmHg 53%
    13:00 -5°C° 0 mm 2 mps 714 mmHg 51%
    14:00 -5°C° 0 mm 3 mps 713 mmHg 48%
    15:00 -5°C° 0 mm 3 mps 713 mmHg 50%
    16:00 -4°C° 0 mm 2 mps 713 mmHg 51%
    17:00 -5°C° 0 mm 2 mps 713 mmHg 53%
    18:00 -6°C° 0 mm 2 mps 713 mmHg 59%
    19:00 -7°C° 0 mm 1 mps 713 mmHg 65%
    20:00 -8°C° 0 mm 1 mps 713 mmHg 70%
    21:00 -9°C° 0 mm 1 mps 713 mmHg 72%
    22:00 -9°C° 0 mm 1 mps 713 mmHg 73%
    23:00 -10°C° 0 mm 1 mps 713 mmHg 74%

    Day after tomorrow, 22 March, Friday

    Time Temperature Precipitation Wind Pressure Humidity
    00:00 -10°C° 0 mm 1 mps 713 mmHg 76%
    01:00 -10°C° 0 mm 1 mps 713 mmHg 77%
    02:00 -11°C° 0 mm 1 mps 713 mmHg 78%
    03:00 -11°C° 0 mm 1 mps 714 mmHg 79%
    04:00 -12°C° 0 mm 1 mps 714 mmHg 80%
    05:00 -12°C° 0 mm 1 mps 714 mmHg 82%
    06:00 -11°C° 0 mm 1 mps 715 mmHg 78%
    07:00 -10°C° 0 mm 1 mps 715 mmHg 74%
    08:00 -10°C° 0 mm 1 mps 715 mmHg 70%
    09:00 -8°C° 0 mm 1 mps 716 mmHg 63%
    10:00 -7°C° 0 mm 2 mps 716 mmHg 55%
    11:00 -6°C° 0 mm 3 mps 716 mmHg 48%
    12:00 -6°C° 0 mm 3 mps 716 mmHg 45%
    13:00 -5°C° 0 mm 3 mps 715 mmHg 42%
    14:00 -4°C° 0 mm 4 mps 715 mmHg 39%
    15:00 -4°C° 0 mm 3 mps 715 mmHg 41%
    16:00 -5°C° 0 mm 3 mps 715 mmHg 43%
    17:00 -5°C° 0 mm 3 mps 714 mmHg 45%
    18:00 -5°C° 0 mm 2 mps 714 mmHg 52%
    19:00 -6°C° 0 mm 1 mps 714 mmHg 58%
    20:00 -8°C° 0 mm 1 mps 714 mmHg 64%
    21:00 -8°C° 0 mm 1 mps 714 mmHg 66%
    22:00 -9°C° 0 mm 1 mps 714 mmHg 68%
    23:00 -9°C° 0 mm 1 mps 713 mmHg 70%

    23 March, Saturday

    Time Temperature Precipitation Wind Pressure Humidity
    00:00 -10°C° 0 mm 1 mps 713 mmHg 73%
    01:00 -10°C° 0 mm 1 mps 712 mmHg 75%
    02:00 -12°C° 0 mm 2 mps 712 mmHg 78%
    03:00 -13°C° 0 mm 2 mps 711 mmHg 80%
    04:00 -13°C° 0 mm 2 mps 711 mmHg 83%
    05:00 -13°C° 0 mm 2 mps 710 mmHg 86%
    06:00 -12°C° 0 mm 2 mps 710 mmHg 83%
    07:00 -10°C° 0 mm 2 mps 709 mmHg 79%
    08:00 -9°C° 0 mm 2 mps 709 mmHg 76%
    09:00 -8°C° 0 mm 3 mps 708 mmHg 71%
    10:00 -7°C° 0 mm 3 mps 708 mmHg 65%
    11:00 -5°C° 0 mm 4 mps 707 mmHg 60%
    12:00 -4°C° 0 mm 4 mps 706 mmHg 58%
    13:00 -4°C° 0 mm 5 mps 705 mmHg 56%
    14:00 -2°C° 0 mm 5 mps 704 mmHg 55%
    15:00 -2°C° 0 mm 4 mps 703 mmHg 56%
    16:00 -1°C° 0 mm 4 mps 703 mmHg 58%
    17:00 0°C° 0 mm 3 mps 702 mmHg 59%
    18:00 -1°C° 0.1 mm 3 mps 702 mmHg 66%
    19:00 -2°C° 0.1 mm 2 mps 702 mmHg 74%
    20:00 -4°C° 0.1 mm 2 mps 702 mmHg 81%
    21:00 -4°C° 0 mm 2 mps 702 mmHg 81%
    22:00 -5°C° 0 mm 2 mps 702 mmHg 82%
    23:00 -6°C° 0 mm 2 mps 702 mmHg 82%

    24 March, Sunday

    Time Temperature Precipitation Wind Pressure Humidity
    00:00 -7°C° 0 mm 2 mps 702 mmHg 83%
    01:00 -6°C° 0 mm 1 mps 702 mmHg 84%
    02:00 -7°C° 0 mm 1 mps 702 mmHg 84%
    03:00 -8°C° 0 mm 1 mps 702 mmHg 85%
    04:00 -8°C° 0 mm 1 mps 702 mmHg 86%
    05:00 -8°C° 0 mm 1 mps 702 mmHg 87%
    06:00 -8°C° 0 mm 1 mps 702 mmHg 83%
    07:00 -7°C° 0 mm 1 mps 702 mmHg 80%
    08:00 -6°C° 0 mm 1 mps 702 mmHg 76%
    09:00 -5°C° 0 mm 2 mps 702 mmHg 69%
    10:00 -5°C° 0 mm 3 mps 702 mmHg 62%
    11:00 -3°C° 0 mm 4 mps 701 mmHg 55%
    12:00 -4°C° 0.1 mm 5 mps 701 mmHg 52%
    13:00 -2°C° 0.1 mm 5 mps 701 mmHg 50%
    14:00 -3°C° 0.1 mm 6 mps 701 mmHg 48%
    15:00 -4°C° 0.1 mm 5 mps 701 mmHg 52%
    16:00 -5°C° 0.1 mm 5 mps 701 mmHg 56%
    17:00 -6°C° 0.1 mm 5 mps 702 mmHg 60%
    18:00 -7°C° 0 mm 5 mps 702 mmHg 59%
    19:00 -10°C° 0 mm 5 mps 703 mmHg 57%
    20:00 -12°C° 0 mm 5 mps 704 mmHg 56%
    21:00 -12°C° 0 mm 4 mps 705 mmHg 52%
    22:00 -14°C° 0 mm 4 mps 705 mmHg 47%
    23:00 -15°C° 0 mm 4 mps 706 mmHg 43%

    25 March, Monday

    Time Temperature Precipitation Wind Pressure Humidity
    00:00 -17°C° 0 mm 5 mps 706 mmHg 47%
    01:00 -17°C° 0 mm 5 mps 706 mmHg 50%
    02:00 -18°C° 0 mm 5 mps 706 mmHg 53%
    03:00 -18°C° 0 mm 5 mps 706 mmHg 60%
    04:00 -18°C° 0 mm 5 mps 706 mmHg 67%
    05:00 -17°C° 0 mm 4 mps 707 mmHg 74%
    06:00 -17°C° 0.1 mm 4 mps 707 mmHg 72%
    07:00 -17°C° 0.1 mm 4 mps 708 mmHg 71%
    08:00 -16°C° 0.1 mm 4 mps 708 mmHg 69%
    09:00 -15°C° 0.1 mm 4 mps 709 mmHg 67%
    10:00 -14°C° 0.1 mm 5 mps 709 mmHg 64%
    11:00 -12°C° 0.1 mm 5 mps 710 mmHg 62%
    12:00 -11°C° 0.1 mm 5 mps 710 mmHg 60%
    13:00 -11°C° 0.1 mm 5 mps 711 mmHg 59%
    14:00 -10°C° 0.1 mm 5 mps 711 mmHg 57%
    15:00 -10°C° 0 mm 5 mps 712 mmHg 57%
    16:00 -8°C° 0 mm 5 mps 712 mmHg 58%
    17:00 -8°C° 0 mm 5 mps 713 mmHg 58%
    18:00 -9°C° 0 mm 4 mps 714 mmHg 64%
    19:00 -9°C° 0 mm 3 mps 714 mmHg 70%
    20:00 -9°C° 0 mm 2 mps 715 mmHg 76%
    21:00 -10°C° 0 mm 2 mps 716 mmHg 79%
    22:00 -10°C° 0 mm 1 mps 716 mmHg 82%
    23:00 -11°C° 0 mm 1 mps 716 mmHg 84%
    Show more